Monticello, NY
on Saturday, December 9, 2017

Saturday
       
Previous Day Next Day
Daily Summary
 ActualAverageRecord
Temperature
Mean Temperature °F °C °F °C  
Max Temperature 26°F -3°C 35°F 1°C 51°F 10°C (1999)
Min Temperature 24°F -4°C 23°F -5°C 3°F -16°C (2002)
Degree Days
Heating Degree Days 40    
Moisture
Dew Point 20°F -7°C   
Average Humidity 81    
Maximum Humidity 93    
Minimum Humidity 64    
Precipitation
Precipitation 0.00 in / 0.00 cm in / cm in / cm ()
Wind
Wind Speed 4 mph / 6 km/h   
Max Wind Speed 9 mph / 14 km/h   
Max Gust Speed mph / km/h   
Visibility 6 miles / 9 kilometers   
Events Snow   
Averages and records for this station are not official NWS values.
Key: T is trace of precipitation, MM is missing value
Source: NWS Daily Summary
Seasonal Weather Averages
Time(EST)TemperatureDew PointHumidity Pressure Visibility Wind DirectionWind SpeedGust SpeedPrecipitationEvents Conditions
2:00 AM 24.8°F -4.0°C 15.8°F -9.0°C 69% 29.91 in / 1012.8 hPa 10.0 miles / 16.1 kilometers NW 5.8 mph / 9.3 km/h - N/A   Overcast
3:00 AM 24.8°F -4.0°C 14.0°F -10.0°C 64% 29.91 in / 1012.8 hPa 10.0 miles / 16.1 kilometers NW 5.8 mph / 9.3 km/h - N/A   Mostly Cloudy
4:00 AM 24.8°F -4.0°C 14.0°F -10.0°C 64% 29.91 in / 1012.8 hPa 10.0 miles / 16.1 kilometers WNW 4.6 mph / 7.4 km/h - N/A   Mostly Cloudy
5:00 AM 24.8°F -4.0°C 14.0°F -10.0°C 64% 29.88 in / 1011.7 hPa 10.0 miles / 16.1 kilometers NW 3.5 mph / 5.6 km/h - N/A   Clear
6:00 AM 24.8°F -4.0°C 15.8°F -9.0°C 69% 29.90 in / 1012.4 hPa 10.0 miles / 16.1 kilometers Calm Calm - N/A   Clear
7:20 AM 24.8°F -4.0°C 17.6°F -8.0°C 74% 29.90 in / 1012.4 hPa 10.0 miles / 16.1 kilometers SE 3.5 mph / 5.6 km/h - N/A   Scattered Clouds
7:54 AM 24.8°F -4.0°C 15.8°F -9.0°C 69% 29.91 in / 1012.8 hPa 10.0 miles / 16.1 kilometers Calm Calm - N/A   Mostly Cloudy
8:57 AM 26.6°F -3.0°C 15.8°F -9.0°C 64% 29.89 in / 1012.1 hPa 10.0 miles / 16.1 kilometers Calm Calm - N/A   Scattered Clouds
9:55 AM 26.6°F -3.0°C 15.8°F -9.0°C 64% 29.87 in / 1011.4 hPa 9.0 miles / 14.5 kilometers East 9.2 mph / 14.8 km/h - N/A Snow Light Snow
10:53 AM 24.8°F -4.0°C 21.2°F -6.0°C 86% 29.86 in / 1011.1 hPa 3.0 miles / 4.8 kilometers ESE 5.8 mph / 9.3 km/h - N/A Snow Light Snow
11:59 AM 26.6°F -3.0°C 23.0°F -5.0°C 86% 29.83 in / 1010.0 hPa 1.0 miles / 1.6 kilometers ENE 3.5 mph / 5.6 km/h - N/A Snow Light Snow
12:52 PM 26.6°F -3.0°C 24.8°F -4.0°C 93% 29.78 in / 1008.4 hPa 2.0 miles / 3.2 kilometers ENE 3.5 mph / 5.6 km/h - N/A Snow Light Snow
1:52 PM 26.6°F -3.0°C 24.8°F -4.0°C 93% 29.75 in / 1007.3 hPa 0.8 miles / 1.2 kilometers Calm Calm - N/A Snow Light Snow
2:52 PM 26.6°F -3.0°C 24.8°F -4.0°C 93% 29.73 in / 1006.7 hPa 0.8 miles / 1.2 kilometers Calm Calm - N/A Snow Light Snow
4:00 PM 26.6°F -3.0°C 24.8°F -4.0°C 93% 29.74 in / 1007.0 hPa 0.8 miles / 1.2 kilometers Calm Calm - N/A Snow Light Snow
4:58 PM 26.6°F -3.0°C 24.8°F -4.0°C 93% 29.72 in / 1006.3 hPa 1.2 miles / 2.0 kilometers Calm Calm - N/A Snow Light Snow
6:00 PM 26.6°F -3.0°C 24.8°F -4.0°C 93% 29.71 in / 1006.0 hPa 1.8 miles / 2.8 kilometers NW 3.5 mph / 5.6 km/h - N/A Snow Light Snow
7:00 PM 26.6°F -3.0°C 24.8°F -4.0°C 93% 29.71 in / 1006.0 hPa 1.8 miles / 2.8 kilometers WNW 4.6 mph / 7.4 km/h - N/A Snow Light Snow
8:00 PM 26.6°F -3.0°C 24.8°F -4.0°C 93% 29.69 in / 1005.3 hPa 2.5 miles / 4.0 kilometers WNW 4.6 mph / 7.4 km/h - N/A Snow Light Snow
9:30 PM 26.6°F -3.0°C 24.8°F -4.0°C 93% 29.69 in / 1005.3 hPa 9.0 miles / 14.5 kilometers West 4.6 mph / 7.4 km/h - N/A Snow Light Snow
11:15 PM 24.8°F -4.0°C 21.2°F -6.0°C 86% 29.68 in / 1005.0 hPa 10.0 miles / 16.1 kilometers WNW 5.8 mph / 9.3 km/h - N/A   Scattered Clouds